Regional Weather Roundup
Issued by NWS

Home | Current Version | Previous Version | Graphics & Text | Print | Product List | Glossary On
Versions: 1 2 3 4 5 6 7 8 9 10 11 12 13 14 15 16 17 18 19 20 21 22 23 24 25 26 27 28 29 30 31 32 33 34 35 36 37 38 39 40 41 42 43 44 45 46 47 48 49 50
215
ASUS45 KPSR 290010
RWRAZ

ARIZONA HOURLY REGIONAL WEATHER ROUNDUP
NATIONAL WEATHER SERVICE PHOENIX AZ
500 PM MST SAT MAY 28 2016

NOTE: FAIR INDICATES FEW OR NO CLOUDS BELOW 12,000 FEET WITH NO
SIGNIFICANT WEATHER AND/OR OBSTRUCTIONS TO VISIBILITY.

AZZ001>003-036-290100-
NORTHWEST ARIZONA

CITY           SKY/WX    TMP DP  RH WIND       PRES   REMARKS
BULLHEAD CITY  MOSUNNY   97  25   7 SW9       29.70F
KINGMAN        SUNNY     85  25  11 SW13      29.87F
6HR MIN TEMP:  80; 6HR MAX TEMP:  88;

$$

AZZ004>008-015-016-018-290100-
NORTH CENTRAL ARIZONA

CITY           SKY/WX    TMP DP  RH WIND       PRES   REMARKS
GRAND CANYON   CLOUDY    72  28  19 CALM      30.09F
6HR MIN TEMP:  66; 6HR MAX TEMP:  72;

WILLIAMS       MOSUNNY   72  19  14 SE9G17    30.14S
PRESCOTT       MOSUNNY   78  20  11 SW8       29.97S
6HR MIN TEMP:  74; 6HR MAX TEMP:  80;

FLAGSTAFF      MOSUNNY   69  24  18 SW9       30.09S
6HR MIN TEMP:  63; 6HR MAX TEMP:  70;

PAYSON         SUNNY     81  18   9 SW9G17    30.01S
PAGE           MOSUNNY   83  27  13 NE10      29.92F
6HR MIN TEMP:  76; 6HR MAX TEMP:  85;

$$

AZZ009>014-017-290100-
NORTHEAST ARIZONA

CITY           SKY/WX    TMP DP  RH WIND       PRES   REMARKS
WINSLOW        SUNNY     82  15   8 E5        29.94F
6HR MIN TEMP:  76; 6HR MAX TEMP:  84;

SAINT JOHNS    MOSUNNY   78  20  11 NE9       29.98S
6HR MIN TEMP:  74; 6HR MAX TEMP:  83;

WINDOW ROCK    MOSUNNY   73  21  14 W9        30.08S
6HR MIN TEMP:  69; 6HR MAX TEMP:  76;

SHOW LOW       SUNNY     73  14  10 SW21      30.06R
$$

AZZ023-290100-
GREATER PHOENIX AREA

CITY           SKY/WX    TMP DP  RH WIND       PRES   REMARKS
PHOENIX        MOSUNNY   96  25   8 S7        29.71F
6HR MIN TEMP:  87; 6HR MAX TEMP:  97;

BUCKEYE        SUNNY     93  25   8 S6        29.74F
GLENDALE       SUNNY     97  19   6 VRB6      29.74F
LUKE AFB       SUNNY     96  23   7 E6        29.71F
6HR MIN TEMP:  87; 6HR MAX TEMP:  96;

DEER VALLEY    SUNNY     94  25   8 SW12      29.74F
6HR MIN TEMP:  85; 6HR MAX TEMP:  95;

SCOTTSDALE     SUNNY     94  24   8 SW9       29.76F
6HR MIN TEMP:  86; 6HR MAX TEMP:  95;

MESA-FALCON    SUNNY    N/A N/A N/A SW12      29.72S
MESA-GATEWAY   SUNNY     95  19   6 W10       29.75S
CHANDLER       SUNNY     95  23   7 SW12      29.73F
$$

AZZ027-028-290100-
SOUTHWEST MARICOPA COUNTY AND PINAL COUNTY

CITY           SKY/WX    TMP DP  RH WIND       PRES   REMARKS
CASA GRANDE    SUNNY     95  30  10 W3        29.77S
6HR MIN TEMP:  86; 6HR MAX TEMP:  95;

GILA BEND      FAIR      94  27   9 NW8       29.71F
6HR MIN TEMP:  87; 6HR MAX TEMP:  96;

$$

AZZ503-504-507>509-290100-
SOUTHEAST ARIZONA

CITY           SKY/WX    TMP DP  RH WIND       PRES   REMARKS
TUCSON         SUNNY     92  10   5 SW12G20   29.83S
6HR MIN TEMP:  85; 6HR MAX TEMP:  94;

DAVIS-MONTHAN  SUNNY     92  12   5 W14       29.82R
6HR MIN TEMP:  84; 6HR MAX TEMP:  93;

RYAN FIELD     SUNNY     91  18   6 SW22      29.82S
NOGALES        SUNNY     86   8   5 S16G23    29.93S
6HR MIN TEMP:  81; 6HR MAX TEMP:  89;

SIERRA VISTA   SUNNY     84   1   4 SW15G21   29.97S
6HR MIN TEMP:  79; 6HR MAX TEMP:  86;

DOUGLAS        SUNNY     87  13   6 S12G23    29.93S
6HR MIN TEMP:  80; 6HR MAX TEMP:  89;

SAFFORD        SUNNY     92   5   4 S15       29.82F
6HR MIN TEMP:  83; 6HR MAX TEMP:  93;

$$

AZZ020-021-025-026-031-290100-
SOUTHWEST ARIZONA

CITY           SKY/WX    TMP DP  RH WIND       PRES   REMARKS
YUMA           SUNNY     93  29  10 S20       29.73S
6HR MIN TEMP:  89; 6HR MAX TEMP:  96;

$$

CAZ031-033-041-043-047-048-061-290100-
SOUTHERN CALIFORNIA

CITY           SKY/WX    TMP DP  RH WIND       PRES   REMARKS
DOWNTOWN L.A.  MOSUNNY   67  55  65 VRB5      29.86S
6HR MIN TEMP:  66; 6HR MAX TEMP:  72;

L.A. AIRPORT   PTSUNNY   63  55  75 W15       29.87F
6HR MIN TEMP:  63; 6HR MAX TEMP:  67;

SAN DIEGO      CLOUDY    64  55  72 SW9       29.92R
6HR MIN TEMP:  63; 6HR MAX TEMP:  66;

BURBANK        SUNNY     71  55  56 S10       29.84S
6HR MIN TEMP:  66; 6HR MAX TEMP:  75;

ONTARIO        PTSUNNY   76  53  44 W13G23    29.83S
6HR MIN TEMP:  63; 6HR MAX TEMP:  79;

RIVERSIDE      SUNNY     76  52  43 W14G22    29.83R
6HR MIN TEMP:  64; 6HR MAX TEMP:  81;

PALM SPRINGS   SUNNY     94  25   8 SE13      29.73F
6HR MIN TEMP:  84; 6HR MAX TEMP:  95;

EL CENTRO NAS  SUNNY     95  38  13 SE13      29.70F
6HR MIN TEMP:  85; 6HR MAX TEMP:  97;

IMPERIAL       SUNNY     97  34  11 SE16      29.69S
6HR MIN TEMP:  87; 6HR MAX TEMP:  97;

BLYTHE         SUNNY     95  34  11 S20       29.71S
6HR MIN TEMP:  88; 6HR MAX TEMP:  97;

NEEDLES        SUNNY     96  25   8 SW8       29.71F
6HR MIN TEMP:  91; 6HR MAX TEMP:  99;

$$

NVZ020-UTZ003-290100-
SOUTHERN NEVADA-UTAH

CITY           SKY/WX    TMP DP  RH WIND       PRES   REMARKS
LAS VEGAS      PTSUNNY   91  24   9 VRB5      29.74F
6HR MIN TEMP:  85; 6HR MAX TEMP:  92;

SALT LAKE CITY MOSUNNY   74  38  27 N13       30.00S
6HR MIN TEMP:  67; 6HR MAX TEMP:  76;

$$

NMZ009-TXZ055-290100-
NEW MEXICO-WEST TEXAS

CITY           SKY/WX    TMP DP  RH WIND       PRES   REMARKS
ALBUQUERQUE    MOSUNNY   79  22  12 VRB3      30.02F
6HR MIN TEMP:  72; 6HR MAX TEMP:  81;

EL PASO        MOSUNNY   91   0   3 SW12      29.92S
6HR MIN TEMP:  83; 6HR MAX TEMP:  92;

$$


........................KEY........................
SKY/WX - SKY CONDITION/WEATHER
TMP    - TEMPERATURE IN FAHRENHEIT
DP     - DEW POINT IN FAHRENHEIT
RH     - RELATIVE HUMIDITY IN PERCENT
WIND   - DIRECTION AND SPEED IN MILES PER HOUR (MPH)
VRB    - VARIABLE WIND DIRECTION
PRES   - MEAN SEA LEVEL PRESSURE IN INCHES OF MERCURY
         F - FALLING PRESSURE   R - RISING PRESSURE
         S - STEADY PRESSURE
VSB    - VISIBILITY IN MILES
HX     - HEAT INDEX IN FAHRENHEIT
WCI    - WIND CHILL INDEX IN FAHRENHEIT
TC     - TEMPERATURE IN CELSIUS WHICH IS ALSO KNOWN AS
         TEMPERATURE IN CENTIGRADE
AFB    - AIR FORCE BASE
         LUKE AFB IS LUKE AIR FORCE BASE
         DAVIS-MONTHAN IS DAVIS-MONTHAN AIR FORCE BASE
NAS    - NAVAL AIR STATION
         EL CENTRO NAS IS EL CENTRO NAVAL AIR STATION
N/A    - NOT AVAILABLE





USA.gov is the U.S. government's official web portal to all federal, state and local government web resources and services.